Time,TemperatureF,DewpointF,PressureIn,WindDirection,WindDirectionDegrees,WindSpeedMPH,WindSpeedGustMPH,Humidity,HourlyPrecipIn,Conditions,Clouds,dailyrainin,SolarRadiationWatts/m^2,SoftwareType,DateUTC
2013-01-15 00:02:00,11.0,-1.0,-100.00,WNW,289,6.0,14.0,57,0.00,,,0.00,0.000000,,2013-01-15 06:02:00,
2013-01-15 00:12:00,9.0,-3.0,-100.00,West,281,6.0,13.0,57,0.00,,,0.00,0.000000,,2013-01-15 06:12:00,
2013-01-15 00:33:00,9.0,-3.0,-100.00,West,281,6.0,13.0,57,0.00,,,0.00,0.000000,,2013-01-15 06:33:00,
2013-01-15 00:43:00,9.0,-3.0,-100.00,West,281,6.0,13.0,57,0.00,,,0.00,0.000000,,2013-01-15 06:43:00,
2013-01-15 00:53:00,9.0,-3.0,-100.00,West,281,6.0,13.0,57,0.00,,,0.00,0.000000,,2013-01-15 06:53:00,
2013-01-15 01:02:00,9.0,-3.0,-100.00,West,281,6.0,13.0,57,0.00,,,0.00,0.000000,,2013-01-15 07:02:00,
2013-01-15 01:12:00,7.0,-2.0,-100.00,West,274,2.0,8.0,66,0.00,,,0.00,0.000000,,2013-01-15 07:12:00,
2013-01-15 01:33:00,7.0,-2.0,-100.00,West,274,2.0,8.0,66,0.00,,,0.00,0.000000,,2013-01-15 07:33:00,
2013-01-15 01:43:00,7.0,-2.0,-100.00,West,274,2.0,8.0,66,0.00,,,0.00,0.000000,,2013-01-15 07:43:00,
2013-01-15 01:53:00,7.0,-2.0,-100.00,West,274,2.0,8.0,66,0.00,,,0.00,0.000000,,2013-01-15 07:53:00,
2013-01-15 02:02:00,7.0,-2.0,-100.00,West,274,2.0,8.0,66,0.00,,,0.00,0.000000,,2013-01-15 08:02:00,
2013-01-15 02:12:00,5.0,-2.0,-100.00,WSW,237,3.0,4.0,71,0.00,,,0.00,0.000000,,2013-01-15 08:12:00,
2013-01-15 02:33:00,5.0,-2.0,-100.00,WSW,237,3.0,4.0,71,0.00,,,0.00,0.000000,,2013-01-15 08:33:00,
2013-01-15 02:43:00,5.0,-2.0,-100.00,WSW,237,3.0,4.0,71,0.00,,,0.00,0.000000,,2013-01-15 08:43:00,
2013-01-15 02:53:00,5.0,-2.0,-100.00,WSW,237,3.0,4.0,71,0.00,,,0.00,0.000000,,2013-01-15 08:53:00,
2013-01-15 03:02:00,5.0,-2.0,-100.00,WSW,237,3.0,4.0,71,0.00,,,0.00,0.000000,,2013-01-15 09:02:00,
2013-01-15 03:12:00,4.0,-2.0,-100.00,WSW,237,3.0,4.0,74,0.00,,,0.00,0.000000,,2013-01-15 09:12:00,
2013-01-15 03:42:00,4.0,-2.0,-100.00,WSW,237,3.0,4.0,74,0.00,,,0.00,0.000000,,2013-01-15 09:42:00,
2013-01-15 03:52:00,4.0,-2.0,-100.00,WSW,237,3.0,4.0,74,0.00,,,0.00,0.000000,,2013-01-15 09:52:00,
2013-01-15 04:02:00,4.0,-2.0,-100.00,WSW,237,3.0,4.0,74,0.00,,,0.00,0.000000,,2013-01-15 10:02:00,
2013-01-15 04:12:00,5.0,-1.0,-100.00,WSW,256,3.0,8.0,75,0.00,,,0.00,0.000000,,2013-01-15 10:12:00,
2013-01-15 04:33:00,5.0,-1.0,-100.00,WSW,256,3.0,8.0,75,0.00,,,0.00,0.000000,,2013-01-15 10:33:00,
2013-01-15 04:42:00,5.0,-1.0,-100.00,WSW,256,3.0,8.0,75,0.00,,,0.00,0.000000,,2013-01-15 10:42:00,
2013-01-15 04:52:00,5.0,-1.0,-100.00,WSW,256,3.0,8.0,75,0.00,,,0.00,0.000000,,2013-01-15 10:52:00,
2013-01-15 05:02:00,5.0,-1.0,-100.00,WSW,256,3.0,8.0,75,0.00,,,0.00,0.000000,,2013-01-15 11:02:00,
2013-01-15 05:12:00,4.0,-2.0,-100.00,West,259,2.0,4.0,77,0.00,,,0.00,0.000000,,2013-01-15 11:12:00,
2013-01-15 05:33:00,4.0,-2.0,-100.00,West,259,2.0,4.0,77,0.00,,,0.00,0.000000,,2013-01-15 11:33:00,
2013-01-15 05:43:00,4.0,-2.0,-100.00,West,259,2.0,4.0,77,0.00,,,0.00,0.000000,,2013-01-15 11:43:00,
2013-01-15 05:53:00,4.0,-2.0,-100.00,West,259,2.0,4.0,77,0.00,,,0.00,0.000000,,2013-01-15 11:53:00,
2013-01-15 06:03:00,4.0,-2.0,-100.00,West,259,2.0,4.0,77,0.00,,,0.00,0.000000,,2013-01-15 12:03:00,
2013-01-15 06:12:00,2.0,-3.0,-100.00,South,191,2.0,4.0,80,0.00,,,0.00,0.000000,,2013-01-15 12:12:00,
2013-01-15 06:33:00,2.0,-3.0,-100.00,South,191,2.0,4.0,80,0.00,,,0.00,0.000000,,2013-01-15 12:33:00,
2013-01-15 06:43:00,2.0,-3.0,-100.00,South,191,2.0,4.0,80,0.00,,,0.00,0.000000,,2013-01-15 12:43:00,
2013-01-15 06:53:00,2.0,-3.0,-100.00,South,191,2.0,4.0,80,0.00,,,0.00,0.000000,,2013-01-15 12:53:00,
2013-01-15 07:03:00,2.0,-3.0,-100.00,South,191,2.0,4.0,80,0.00,,,0.00,0.000000,,2013-01-15 13:03:00,
2013-01-15 07:12:00,1.0,-4.0,-100.00,SSW,213,3.0,5.0,78,0.00,,,0.00,0.000000,,2013-01-15 13:12:00,
2013-01-15 07:33:00,1.0,-4.0,-100.00,SSW,213,3.0,5.0,78,0.00,,,0.00,0.000000,,2013-01-15 13:33:00,
2013-01-15 07:43:00,1.0,-4.0,-100.00,SSW,213,3.0,5.0,78,0.00,,,0.00,0.000000,,2013-01-15 13:43:00,
2013-01-15 07:53:00,1.0,-4.0,-100.00,SSW,213,3.0,5.0,78,0.00,,,0.00,0.000000,,2013-01-15 13:53:00,
2013-01-15 08:02:00,1.0,-4.0,-100.00,SSW,213,3.0,5.0,78,0.00,,,0.00,0.000000,,2013-01-15 14:02:00,
2013-01-15 08:12:00,4.0,-2.0,-100.00,SW,220,5.0,9.0,76,0.00,,,0.00,20.000000,,2013-01-15 14:12:00,
2013-01-15 08:33:00,4.0,-2.0,-100.00,SW,220,5.0,9.0,76,0.00,,,0.00,20.000000,,2013-01-15 14:33:00,
2013-01-15 08:43:00,4.0,-2.0,-100.00,SW,220,5.0,9.0,76,0.00,,,0.00,20.000000,,2013-01-15 14:43:00,
2013-01-15 08:53:00,4.0,-2.0,-100.00,SW,220,5.0,9.0,76,0.00,,,0.00,20.000000,,2013-01-15 14:53:00,
2013-01-15 09:03:00,4.0,-2.0,-100.00,SW,220,5.0,9.0,76,0.00,,,0.00,20.000000,,2013-01-15 15:03:00,
2013-01-15 09:12:00,10.0,2.0,-100.00,SW,219,7.0,13.0,70,0.00,,,0.00,154.000000,,2013-01-15 15:12:00,
2013-01-15 09:33:00,10.0,2.0,-100.00,SW,219,7.0,13.0,70,0.00,,,0.00,154.000000,,2013-01-15 15:33:00,
2013-01-15 09:43:00,10.0,2.0,-100.00,SW,219,7.0,13.0,70,0.00,,,0.00,154.000000,,2013-01-15 15:43:00,
2013-01-15 09:53:00,10.0,2.0,-100.00,SW,219,7.0,13.0,70,0.00,,,0.00,154.000000,,2013-01-15 15:53:00,
2013-01-15 10:03:00,10.0,2.0,-100.00,SW,219,7.0,13.0,70,0.00,,,0.00,154.000000,,2013-01-15 16:03:00,
2013-01-15 10:12:00,17.0,6.0,-100.00,WSW,239,9.0,16.0,62,0.00,,,0.00,288.000000,,2013-01-15 16:12:00,
2013-01-15 10:33:00,17.0,6.0,-100.00,WSW,239,9.0,16.0,62,0.00,,,0.00,288.000000,,2013-01-15 16:33:00,
2013-01-15 10:43:00,17.0,6.0,-100.00,WSW,239,9.0,16.0,62,0.00,,,0.00,288.000000,,2013-01-15 16:43:00,
2013-01-15 10:53:00,17.0,6.0,-100.00,WSW,239,9.0,16.0,62,0.00,,,0.00,288.000000,,2013-01-15 16:53:00,
2013-01-15 11:03:00,17.0,6.0,-100.00,WSW,239,9.0,16.0,62,0.00,,,0.00,288.000000,,2013-01-15 17:03:00,
2013-01-15 11:12:00,21.0,8.0,-100.00,SW,232,8.0,15.0,57,0.00,,,0.00,387.000000,,2013-01-15 17:12:00,
2013-01-15 11:43:00,21.0,8.0,-100.00,SW,232,8.0,15.0,57,0.00,,,0.00,387.000000,,2013-01-15 17:43:00,
2013-01-15 11:53:00,21.0,8.0,-100.00,SW,232,8.0,15.0,57,0.00,,,0.00,387.000000,,2013-01-15 17:53:00,
2013-01-15 12:03:00,21.0,8.0,-100.00,SW,232,8.0,15.0,57,0.00,,,0.00,387.000000,,2013-01-15 18:03:00,
2013-01-15 12:12:00,24.0,9.0,-100.00,SW,232,9.0,16.0,52,0.00,,,0.00,400.000000,,2013-01-15 18:12:00,
2013-01-15 12:34:00,24.0,9.0,-100.00,SW,232,9.0,16.0,52,0.00,,,0.00,400.000000,,2013-01-15 18:34:00,
2013-01-15 12:43:00,24.0,9.0,-100.00,SW,232,9.0,16.0,52,0.00,,,0.00,400.000000,,2013-01-15 18:43:00,
2013-01-15 12:53:00,24.0,9.0,-100.00,SW,232,9.0,16.0,52,0.00,,,0.00,400.000000,,2013-01-15 18:53:00,
2013-01-15 13:03:00,24.0,9.0,-100.00,SW,232,9.0,16.0,52,0.00,,,0.00,400.000000,,2013-01-15 19:03:00,
2013-01-15 13:12:00,27.0,9.0,-100.00,WSW,240,8.0,18.0,47,0.00,,,0.00,372.000000,,2013-01-15 19:12:00,
2013-01-15 13:33:00,27.0,9.0,-100.00,WSW,240,8.0,18.0,47,0.00,,,0.00,372.000000,,2013-01-15 19:33:00,
2013-01-15 13:43:00,27.0,9.0,-100.00,WSW,240,8.0,18.0,47,0.00,,,0.00,372.000000,,2013-01-15 19:43:00,
2013-01-15 13:53:00,27.0,9.0,-100.00,WSW,240,8.0,18.0,47,0.00,,,0.00,372.000000,,2013-01-15 19:53:00,
2013-01-15 14:03:00,27.0,9.0,-100.00,WSW,240,8.0,18.0,47,0.00,,,0.00,372.000000,,2013-01-15 20:03:00,
2013-01-15 14:12:00,27.0,9.0,-100.00,WSW,238,9.0,19.0,45,0.00,,,0.00,350.000000,,2013-01-15 20:12:00,
2013-01-15 14:33:00,27.0,9.0,-100.00,WSW,238,9.0,19.0,45,0.00,,,0.00,350.000000,,2013-01-15 20:33:00,
2013-01-15 14:44:00,27.0,9.0,-100.00,WSW,238,9.0,19.0,45,0.00,,,0.00,350.000000,,2013-01-15 20:44:00,
2013-01-15 14:53:00,27.0,9.0,-100.00,WSW,238,9.0,19.0,45,0.00,,,0.00,350.000000,,2013-01-15 20:53:00,
2013-01-15 15:03:00,27.0,9.0,-100.00,WSW,238,9.0,19.0,45,0.00,,,0.00,350.000000,,2013-01-15 21:03:00,
2013-01-15 15:12:00,29.0,8.0,-100.00,WSW,241,9.0,17.0,41,0.00,,,0.00,245.000000,,2013-01-15 21:12:00,
2013-01-15 15:34:00,29.0,8.0,-100.00,WSW,241,9.0,17.0,41,0.00,,,0.00,245.000000,,2013-01-15 21:34:00,
2013-01-15 15:43:00,29.0,8.0,-100.00,WSW,241,9.0,17.0,41,0.00,,,0.00,245.000000,,2013-01-15 21:43:00,
2013-01-15 15:53:00,29.0,8.0,-100.00,WSW,241,9.0,17.0,41,0.00,,,0.00,245.000000,,2013-01-15 21:53:00,
2013-01-15 16:03:00,29.0,8.0,-100.00,WSW,241,9.0,17.0,41,0.00,,,0.00,245.000000,,2013-01-15 22:03:00,
2013-01-15 16:12:00,27.0,9.0,-100.00,SW,221,9.0,14.0,46,0.00,,,0.00,106.000000,,2013-01-15 22:12:00,
2013-01-15 16:33:00,27.0,9.0,-100.00,SW,221,9.0,14.0,46,0.00,,,0.00,106.000000,,2013-01-15 22:33:00,
2013-01-15 16:43:00,27.0,9.0,-100.00,SW,221,9.0,14.0,46,0.00,,,0.00,106.000000,,2013-01-15 22:43:00,
2013-01-15 16:53:00,27.0,9.0,-100.00,SW,221,9.0,14.0,46,0.00,,,0.00,106.000000,,2013-01-15 22:53:00,
2013-01-15 17:02:00,27.0,9.0,-100.00,SW,221,9.0,14.0,46,0.00,,,0.00,106.000000,,2013-01-15 23:02:00,
2013-01-15 17:12:00,23.0,9.0,-100.00,SSW,207,5.0,11.0,54,0.00,,,0.00,6.000000,,2013-01-15 23:12:00,
2013-01-15 17:43:00,23.0,9.0,-100.00,SSW,207,5.0,11.0,54,0.00,,,0.00,6.000000,,2013-01-15 23:43:00,
2013-01-15 17:53:00,23.0,9.0,-100.00,SSW,207,5.0,11.0,54,0.00,,,0.00,6.000000,,2013-01-15 23:53:00,
2013-01-15 18:02:00,23.0,9.0,-100.00,SSW,207,5.0,11.0,54,0.00,,,0.00,6.000000,,2013-01-16 00:02:00,
2013-01-15 18:12:00,21.0,9.0,-100.00,SSW,206,5.0,8.0,60,0.00,,,0.00,0.000000,,2013-01-16 00:12:00,
2013-01-15 18:33:00,21.0,9.0,-100.00,SSW,206,5.0,8.0,60,0.00,,,0.00,0.000000,,2013-01-16 00:33:00,
2013-01-15 18:43:00,21.0,9.0,-100.00,SSW,206,5.0,8.0,60,0.00,,,0.00,0.000000,,2013-01-16 00:43:00,
2013-01-15 18:53:00,21.0,9.0,-100.00,SSW,206,5.0,8.0,60,0.00,,,0.00,0.000000,,2013-01-16 00:53:00,
2013-01-15 19:03:00,21.0,9.0,-100.00,SSW,206,5.0,8.0,60,0.00,,,0.00,0.000000,,2013-01-16 01:03:00,
2013-01-15 19:12:00,21.0,10.0,-100.00,SSW,206,5.0,10.0,63,0.00,,,-99.99,0.000000,,2013-01-16 01:12:00,
2013-01-15 19:33:00,21.0,10.0,-100.00,SSW,206,5.0,10.0,63,0.00,,,-99.99,0.000000,,2013-01-16 01:33:00,
2013-01-15 19:43:00,21.0,10.0,-100.00,SSW,206,5.0,10.0,63,0.00,,,-99.99,0.000000,,2013-01-16 01:43:00,
2013-01-15 19:53:00,21.0,10.0,-100.00,SSW,206,5.0,10.0,63,0.00,,,-99.99,0.000000,,2013-01-16 01:53:00,
2013-01-15 20:03:00,21.0,10.0,-100.00,SSW,206,5.0,10.0,63,0.00,,,-99.99,0.000000,,2013-01-16 02:03:00,
2013-01-15 20:12:00,20.0,11.0,-100.00,SSW,208,5.0,9.0,66,0.00,,,0.00,0.000000,,2013-01-16 02:12:00,
2013-01-15 20:43:00,20.0,11.0,-100.00,SSW,208,5.0,9.0,66,0.00,,,0.00,0.000000,,2013-01-16 02:43:00,
2013-01-15 20:53:00,20.0,11.0,-100.00,SSW,208,5.0,9.0,66,0.00,,,0.00,0.000000,,2013-01-16 02:53:00,
2013-01-15 21:03:00,20.0,11.0,-100.00,SSW,208,5.0,9.0,66,0.00,,,0.00,0.000000,,2013-01-16 03:03:00,
2013-01-15 21:12:00,19.0,10.0,-100.00,SSW,210,5.0,9.0,67,0.00,,,0.00,0.000000,,2013-01-16 03:12:00,
2013-01-15 21:33:00,19.0,10.0,-100.00,SSW,210,5.0,9.0,67,0.00,,,0.00,0.000000,,2013-01-16 03:33:00,
2013-01-15 21:43:00,19.0,10.0,-100.00,SSW,210,5.0,9.0,67,0.00,,,0.00,0.000000,,2013-01-16 03:43:00,
2013-01-15 21:53:00,19.0,10.0,-100.00,SSW,210,5.0,9.0,67,0.00,,,0.00,0.000000,,2013-01-16 03:53:00,
2013-01-15 22:02:00,19.0,10.0,-100.00,SSW,210,5.0,9.0,67,0.00,,,0.00,0.000000,,2013-01-16 04:02:00,
2013-01-15 22:12:00,19.0,10.0,-100.00,SSW,208,6.0,11.0,68,0.00,,,0.00,0.000000,,2013-01-16 04:12:00,
2013-01-15 22:33:00,19.0,10.0,-100.00,SSW,208,6.0,11.0,68,0.00,,,0.00,0.000000,,2013-01-16 04:33:00,
2013-01-15 22:42:00,19.0,10.0,-100.00,SSW,208,6.0,11.0,68,0.00,,,0.00,0.000000,,2013-01-16 04:42:00,
2013-01-15 22:52:00,19.0,10.0,-100.00,SSW,208,6.0,11.0,68,0.00,,,0.00,0.000000,,2013-01-16 04:52:00,
2013-01-15 23:03:00,19.0,10.0,-100.00,SSW,208,6.0,11.0,68,0.00,,,0.00,0.000000,,2013-01-16 05:03:00,
2013-01-15 23:12:00,19.0,11.0,-100.00,SSW,210,7.0,12.0,69,0.00,,,0.00,0.000000,,2013-01-16 05:12:00,
2013-01-15 23:33:00,19.0,11.0,-100.00,SSW,210,7.0,12.0,69,0.00,,,0.00,0.000000,,2013-01-16 05:33:00,
2013-01-15 23:42:00,19.0,11.0,-100.00,SSW,210,7.0,12.0,69,0.00,,,0.00,0.000000,,2013-01-16 05:42:00,
2013-01-15 23:53:00,19.0,11.0,-100.00,SSW,210,7.0,12.0,69,0.00,,,0.00,0.000000,,2013-01-16 05:53:00,